www.pogodaiklimat.ru
ПОГОДА в Гейтерсберге
Время
и дата
21:56 14.06
22:14 14.06
22:19 14.06
22:28 14.06
22:47 14.06
22:56 14.06
23:01 14.06
23:12 14.06
23:16 14.06
23:18 14.06
23:30 14.06
23:43 14.06
23:56 14.06
00:56 15.06
01:09 15.06
01:32 15.06
01:42 15.06
01:49 15.06
01:56 15.06
02:11 15.06
02:56 15.06
03:56 15.06
04:56 15.06
05:56 15.06
06:56 15.06
07:56 15.06
08:56 15.06
09:56 15.06
10:56 15.06
11:56 15.06
12:56 15.06
13:56 15.06
14:56 15.06
15:56 15.06
16:56 15.06
17:56 15.06
18:56 15.06
19:56 15.06
20:56 15.06
21:56 15.06
22:56 15.06
23:56 15.06
00:56 16.06
01:56 16.06
02:56 16.06
03:56 16.06
04:56 16.06
05:56 16.06
Ветер
(напр.,м/с)
Видим. Явления Облачность Т
(С)
Тd
(С)
f
(%)
Тe
(С)
Тes
(С)
Комфортность P
(гПа)
Po
(гПа)
Тmin
(С)
Tmax
(С)
R
(мм)
R24
(мм)
S
(см)
штиль 0 13 км 2/0 3000 m
[Ac]
+20.0 +20.0 100 +23 +23 комфорт 1014.3 995.1 6.6
штиль 0 3 км дымка 8/2 120 m
[Ac]
+20.0 +20.0 100 +23 +23 комфорт 995.4
штиль 0 1 км дымка 8/5 120 m
[Ac]
+20.0 +20.0 100 +23 +23 комфорт 995.4
штиль 0 2 км дымка 8/2 120 m
[Ac]
+20.0 +20.0 100 +23 +23 комфорт 995.1
штиль 0 3 км дымка ясно +20.0 +20.0 100 +23 +23 комфорт 995.7
штиль 0 1 км дымка 5/2 1650 m
[Ac]
+20.0 +20.0 100 +23 +23 комфорт 1015.1 995.7
штиль 0 400 м туман 5/5 150 м +19.0 +19.0 100 +21 +21 комфорт 995.7
СЗ 4 800 м туман 8/8 150 м +19.0 +19.0 100 +21 +21 комфорт 996.0
СЗ 3 2 км дымка 8/8 150 м +20.0 +20.0 100 +24 +24 комфорт 996.0
СЗ 2 4 км дымка 10/10 150 м +20.0 +20.0 100 +24 +24 комфорт 996.0
штиль 0 14 км 8/8 150 m
[Ac]
+19.0 +19.0 100 +21 +21 комфорт 995.7
штиль 0 11 км 8/5 150 m
[Ac]
+19.0 +19.0 100 +21 +21 комфорт 995.7
штиль 0 14 км 8/2 1350 m
[Ac]
+18.9 +18.9 100 +20 +20 1014.8 995.4
З 2 11 км 2/0 3000 m
[Ac]
+18.9 +18.9 100 +21 +21 комфорт 1015.1 995.7 +18.9 +23.9 6.6
З 2 4 км дымка 2/2 60 м +18.0 +18.0 100 +19 +19 996.0
штиль 0 2 км дымка ?/? +18.0 +18.0 100 +18 +18 995.7
штиль 0 3 км дымка ясно +18.0 +18.0 100 +18 +18 995.7
штиль 0 3 км дымка 2/2 150 м +18.0 +18.0 100 +18 +18 995.7
СЗ 2 2 км дымка ясно +17.8 +17.8 100 +18 +18 1015.1 995.7
штиль 0 5 км дымка ясно +18.0 +18.0 100 +18 +18 996.0
штиль 0 16 км ясно +17.2 +17.2 100 +17 +17 1015.6 996.0
штиль 0 16 км ясно +17.2 +17.2 100 +17 +17 1016.0 996.4 0.3
штиль 0 8 км дымка ясно +17.2 +17.2 100 +17 +17 1017.0 997.4
штиль 0 13 км ясно +17.2 +17.2 100 +17 +17 1018.0 998.4
штиль 0 16 км ясно +18.9 +17.8 93 +20 +22 1018.4 998.7 +16.7 +18.9 0.3 6.9
штиль 0 16 км ясно +20.6 +17.2 81 +24 +29 комфорт 1019.1 999.4
штиль 0 16 км ясно +22.8 +16.7 68 +27 +38 душно 1019.5 1000.0
нст 2 16 км ясно +24.4 +15.0 56 +27 +39 жарко 1020.0 1000.4
нст 2 16 км 5/5 1650 м +25.6 +14.4 50 +28 +36 жарко 1020.0 1000.4
нст 2 16 км 5/5 1800 м +26.1 +15.0 50 +29 +38 жарко 1020.2 1000.7
нст 2 16 км 5/5 1800 м +26.1 +13.3 45 +28 +38 жарко 1019.6 1000.0 +18.9 +26.1
СЗ 4 16 км 5/5 1800 м +26.7 +13.9 45 +29 +36 жарко 1019.3 999.7
нст 3 16 км 8/8 1950 м +25.6 +12.8 45 +27 +30 жарко 1019.6 1000.0
З 4
{7}
16 км 8/0 2100 m
[Ac]
+27.2 +13.3 42 +29 +33 жарко 1019.6 1000.0
СЗ 2 16 км 2/0 2100 m
[Ac]
+27.2 +12.2 39 +28 +36 жарко 1019.4 999.7
СЗ 2 16 км ясно +26.7 +11.1 38 +28 +32 жарко 1019.6 1000.0
штиль 0 16 км ясно +24.4 +12.8 48 +26 +29 жарко 1020.1 1000.4 +24.4 +27.8
штиль 0 11 км ясно +20.6 +12.2 59 +22 +23 комфорт 1020.3 1000.7
штиль 0 16 км ясно +18.9 +12.2 65 +20 +20 1021.3 1001.7
штиль 0 16 км ясно +17.2 +14.4 84 +17 +17 1021.5 1001.7
штиль 0 16 км ясно +15.6 +13.9 90 +15 +15 1021.8 1002.4
штиль 0 16 км ясно +16.1 +12.2 78 +16 +16 1022.1 1002.4
штиль 0 16 км ясно +15.0 +13.3 90 +15 +15 1022.3 1002.7 +15.0 +24.4
штиль 0 16 км ясно +13.9 +13.3 96 +13 +13 1022.4 1002.7
штиль 0 16 км ясно +13.9 +13.3 96 +13 +13 1022.6 1003.0
штиль 0 16 км ясно +13.3 +13.3 100 +13 +13 1022.8 1003.0
штиль 0 16 км ясно +13.3 +12.8 97 +13 +13 1023.2 1003.7
штиль 0 16 км ясно +14.4 +13.9 97 +14 +14 1024.1 1004.4
Местоположение метеостанции Montgomery County Airpark: широта 39.1673 долгота -77.1614 высота над уровнем моря 154 м.
В архиве по умолчанию представлена погода в Гейтерсберге за последние 1-2 суток. Обновление информации о фактической погоде в базе происходит ежечасно! Архивные данные за месяц целиком и за предыдущие месяцы Вы можете получить, выбрав интересующий диапазон дат из раскрывающегося списка и нажав кнопку "Ввод!".
Внимание! Архив погоды МЕТАР в базе сайта по станциям, не включенным в климатический монитор, хранится не более 60 дней. Нет смысла пытаться выбрать более раннюю дату.
*Определитесь, кто Вы:
Внимание! Время в таблицах - местное (без учета летнего времени). Для получения всемирного времени необходимо вычесть поправку, которая равна -5 ч.
Смотрите также архив погоды в соседних городах и на ближайших метеорологических станциях:
Партнеры нашего сайта:      
Пояснения к столбцам:
  • Ветер - указаны скорость ветра в м/с - средняя за 10 мин, порывы в срок и между сроками (в фигурных скобках) и направление, откуда дует ветер: С - северный,
  • СВ - северо-восточный, В - восточный, ЮВ - юго-восточный, Ю - южный, ЮЗ - юго-западный, З - западный, СЗ - северо-западный.
  • Видимость - горизонтальная дальность видимости в метрах или километрах. При видимости от 1 до 10 км при отсутствии осадков обычно наблюдается дымка, при ухудшении видимости до 1 км и менее - туман. В сухую погоду видимость может ухудшаться дымом, пылью или мглою.
  • Явления - указаны атмосферные явления, наблюдавшиеся в срок или в последний час перед сроком; фигурными скобками обозначены явления, наблюдавшиеся между сроками (за 1-3 часа до срока); квадратными скобками обозначены град или гололедные отложения с указанием их диаметра в мм.
  • Облачность - указаны через наклонную черту общая и нижняя облачность в баллах и высота нижней границы облаков в метрах; квадратными скобками обозначены формы облаков: Ci - перистые, Cs - перисто-слоистые, Cc - перисто-кучевые, Ac - высококучевые, As - высокослоистые, Sc - слоисто-кучевые, Ns - слоисто-дождевые, Cu - кучевые, Cb - кучево-дождевые. Подробнее классификацию облаков см. в Атласе облаков (PDF).
  • T - Температура воздуха - температура, измеренная на высоте 2 м над землей.
  • Td - Температура точки росы - температура, при понижении до которой содержащийся в воздухе водяной пар достигнет насыщения.
  • f - Относительная влажность воздуха - влажноcть воздуха, измеренная на высоте 2 м над землей.
  • Te - Эффективная температура - температура, которую ощущает одетый по сезону человек в тени. Характеристика душности погоды. При расчете учитывается влияние влажности воздуха и скорости ветра на теплоощущения человека.
  • Tes - Эффективная температура на солнце - температура, которую ощущает человек, с поправкой на солнечный нагрев. Характеристика знойности погоды. Зависит от высоты солнца над горизонтом, облачности и скорости ветра. Ночью, в пасмурную погоду, а также при ветре 12 м/с и более поправка равна нулю.
  • P - Атмосферное давление - приведенное к уровню моря атмосферное давление.
  • Po - Атмосферное давление - измеренное на уровне метеостанции атмосферное давление.
  • Tmin - Минимальная температура - минимум температуры воздуха на высоте 2 м над землей.
  • Tmax - Максимальная температура - максимум температуры воздуха на высоте 2 м над землей.
  • R - Количество осадков - Количество выпавших осадков за период времени, мм. При наведении курсора мыши на число - период времени, за который выпало указанное количество осадков.
  • R24 - Количество осадков - Количество выпавших осадков за 24 часа, мм.
  • S - Снежный покров - Высота снежного покрова, см. При наведении курсора мыши на число - состояние снежного покрова и степень покрытия местности в баллах.